Location: Rancho Del Sol Observatory
(38.7214°N, 120.6350°W)
Time: 22:48:19
(UTC-08:00)

Explorer 7 - All Passes

Search period start: 19 January 2020 00:00
Search period end: 29 January 2020 00:00
Orbit: 485 x 679 km, 50.3° (Epoch: 19 January)

Date Brightness Start Highest point End Pass type
(mag) Time Alt. Az. Time Alt. Az. Time Alt. Az.
19 Jan - 01:23:26 10° W 01:26:58 39° NNW 01:30:35 10° NE night (unlit)
19 Jan - 03:05:51 10° NW 03:08:17 16° N 03:10:47 10° NNE night (unlit)
19 Jan - 04:47:11 10° NNW 04:49:58 18° NNE 04:52:51 10° ENE visible
19 Jan - 06:27:10 10° NW 06:31:08 53° NNE 06:35:21 10° ESE visible
19 Jan - 08:08:01 10° WNW 08:11:29 25° SW 08:15:07 10° S daylight
19 Jan - 23:47:47 10° SW 23:51:26 51° SE 23:55:05 10° ENE night (unlit)
20 Jan - 01:28:48 10° W 01:32:04 27° NNW 01:35:23 10° NE night (unlit)
20 Jan - 03:11:18 10° NW 03:13:33 15° N 03:15:51 10° NE night (unlit)
20 Jan - 04:52:02 10° NNW 04:55:10 22° NNE 04:58:25 10° ENE visible
20 Jan - 06:32:03 10° NW 06:36:07 84° NE 06:40:25 10° SE visible
20 Jan - 08:13:50 10° W 08:16:15 15° SW 08:18:43 10° SSW daylight
20 Jan - 22:15:22 10° SE 22:16:22 11° SE 22:17:22 10° ESE night (unlit)
20 Jan - 23:52:35 10° SW 23:56:19 89° WNW 00:00:05 10° NE night (unlit)
21 Jan - 01:34:18 10° WNW 01:37:13 21° NNW 01:40:11 10° NNE night (unlit)
21 Jan - 03:16:34 10° NNW 03:18:50 15° N 03:21:08 10° NE night (unlit)
21 Jan - 04:56:52 10° NW 05:00:18 28° NNE 05:03:55 10° E visible
21 Jan - 06:37:01 10° WNW 06:41:00 59° SW 06:45:15 10° SE visible
21 Jan - 22:18:18 10° S 22:21:05 20° SE 22:23:51 10° E night (unlit)
21 Jan - 23:57:36 10° WSW 00:01:17 53° NNW 00:04:58 10° NE night (unlit)
22 Jan - 01:39:51 10° NW 01:42:25 17° NNW 01:45:02 10° NNE night (unlit)
22 Jan - 03:21:38 10° NNW 03:24:05 16° N 03:26:36 10° NE visible
22 Jan - 05:01:39 10° NW 05:05:23 39° NNE 05:09:18 10° E visible
22 Jan - 06:42:09 10° WNW 06:45:51 34° SW 06:49:46 10° SSE visible
22 Jan - 22:22:24 10° SSW 22:25:52 34° SE 22:29:17 10° ENE night (unlit)
23 Jan - 00:02:51 10° W 00:06:18 34° NNW 00:09:47 10° NE night (unlit)
23 Jan - 01:45:23 10° NW 01:47:40 15° N 01:49:58 10° NNE night (unlit)
23 Jan - 03:26:33 10° NNW 03:29:19 18° NNE 03:32:09 10° ENE visible
23 Jan - 05:06:29 10° NW 05:10:23 60° NNE 05:14:31 10° ESE visible
23 Jan - 06:47:35 10° W 06:50:38 20° SW 06:53:49 10° S visible
23 Jan - 22:26:58 10° SW 22:30:42 62° SE 22:34:24 10° ENE night (unlit)
24 Jan - 00:08:16 10° W 00:11:25 25° NNW 00:14:34 10° NE night (unlit)
24 Jan - 01:50:48 10° NW 01:52:55 14° N 01:55:05 10° NNE night (unlit)
24 Jan - 03:31:22 10° NW 03:34:29 23° NNE 03:37:43 10° ENE visible
24 Jan - 05:11:23 10° NW 05:15:20 83° SW 05:19:31 10° SE visible
24 Jan - 06:53:53 10° WSW 06:55:23 12° SW 06:56:54 10° SSW daylight
24 Jan - 20:53:37 10° SSE 20:55:33 14° SE 20:57:29 10° E night (unlit)
24 Jan - 22:31:50 10° WSW 22:35:37 76° NW 22:39:21 10° NE night (unlit)
25 Jan - 00:13:47 10° WNW 00:16:34 19° NNW 00:19:22 10° NNE night (unlit)
25 Jan - 01:56:00 10° NNW 01:58:12 15° N 02:00:25 10° NE night (unlit)
25 Jan - 03:36:10 10° NW 03:39:36 30° NNE 03:43:11 10° E visible
25 Jan - 05:16:24 10° WNW 05:20:13 48° SW 05:24:14 10° SSE visible
25 Jan - 20:57:10 10° S 21:00:18 24° SE 21:03:22 10° E night (unlit)
25 Jan - 22:36:56 10° WSW 22:40:35 46° NNW 22:44:13 10° NE night (unlit)
26 Jan - 00:19:22 10° NW 00:21:47 16° N 00:24:13 10° NNE night (unlit)
26 Jan - 02:01:00 10° NNW 02:03:26 16° N 02:05:55 10° NE night (unlit)
26 Jan - 03:40:58 10° NW 03:44:40 44° NNE 03:48:31 10° ESE visible
26 Jan - 05:21:38 10° WNW 05:25:02 28° SW 05:28:37 10° SSE visible
26 Jan - 21:01:27 10° SSW 21:05:07 42° SE 21:08:40 10° ENE night (unlit)
26 Jan - 22:42:14 10° W 22:45:38 31° NNW 22:49:01 10° NE night (unlit)
27 Jan - 00:24:53 10° NW 00:27:02 14° N 00:29:12 10° NNE night (unlit)
27 Jan - 02:05:52 10° NNW 02:08:40 19° NNE 02:11:30 10° ENE night (unlit)
27 Jan - 03:45:49 10° NW 03:49:39 70° NE 03:53:40 10° ESE visible
27 Jan - 05:27:15 10° W 05:29:49 16° SW 05:32:26 10° S visible
27 Jan - 21:06:07 10° SW 21:09:58 75° SE 21:13:44 10° ENE night (unlit)
27 Jan - 22:47:42 10° WNW 22:50:45 23° NNW 22:53:48 10° NNE night (unlit)
28 Jan - 00:30:14 10° NNW 00:32:18 14° N 00:34:22 10° NE night (unlit)
28 Jan - 02:10:40 10° NW 02:13:49 24° NNE 02:17:02 10° ENE night (unlit)
28 Jan - 03:50:44 10° WNW 03:54:34 70° SW 03:58:35 10° SE visible
28 Jan - 19:32:11 10° S 19:34:45 17° SE 19:37:16 10° E visible
28 Jan - 21:11:04 10° WSW 21:14:54 64° NW 21:18:38 10° NE night (unlit)
28 Jan - 22:53:15 10° WNW 22:55:55 18° NNW 22:58:35 10° NNE night (unlit)
